SCP
0 0 0 0 0 0 0 0 0 0 0 0 0 0 0 0 0 0 0 0 0 0 0 0 0 0 0 0 0 0 0 0 0 0 0 0 0 0 0 0 0 0 0
0 0 0 0 0 0 0 0 0 0 0 0 0 0 0 0 0 0 0 0 0 0 0 0 0 0 0 0 0 0 0 0 0 0 0 0 0 0 0 0 0 0 0
0 0 0 0 0 0 0 0 0 0 0 0 0 0 0 0 0 0 0 0 0 0 0 0 0 0 0 0 0 0 0 0 0 0 0 0 0 0 0 0 0 0 0
0 0 0 0 0 0 0 0 0 0 0 0 0 0 0 0 0 0 0 0 0 0 0 0 0 0 0 0 0 0 0 0 0 0 0 0 0 0 0 0 0 0 0
0 0 0 0 0 0 0 0 0 0 0 0 0 0 0 0 0 0 0 0 0 0 0 0 0 0 0 0 0 0 0 0 0 0 0 0 0 0 0 0 0 0 0
0 0 0 0 0 0 0 0 0 0 0 0 0 0 0 0 0 0 0 0 0 0 0 0 0 0 0 0 0 0 0 0 0 0 0 0 0 0 0 0 0 0 0
0 0 0 0 0 0 0 0 0 0 0 0 0 0 0 0 0 0 0 0 0 0 0 0 0 0 0 0 0 0 0 0 0 0 0 0 0 0 0 0 0 0 0
0 0 0 0 0 0 0 0 0 0 0 -0 0 0 0 0 0 0 0 0 0 0 0 0 0 0 0 0 0 0 0 0 0 0 0 0 0 0 0 0 0 0 0
0 0 0 0 0 0 0 0 0 0 0 -0 -0 0 0 0 0 0 0 0 0 0 0 0 0 0 0 0 0 0 0 0 0 0 0 0 0 0 0 0 0 0 0
0 0 0 0 0 0 0 0 0 0 0 0 -0 -0 0 0 0 0 0 0 0 0 0 0 0 0 0 0 0 0 0 0 0 0 0 0 0 0 0 0 0 0 0
0 0 0 0 0 0 0 0 0 0 0 0 -0 -0 -0 -0 0 0 0 0 0 0 0 0 0 0 0 0 0 0 0 0 0 0 0 0 0 0 0 0 0 0 0
0 0 0 0 0 0 0 0 0 0 0 0 0 -0 -0 -0 -0 0 0 0 0 0 0 0 0 0 0 0 0 0 0 0 0 0 0 0 0 0 0 0 0 0 0
0 0 0 0 0 0 0 0 0 0 0 0 0 0 -0 -0 -0 -0 0 0 0 0 0 0 0 0 0 0 0 0 0 0 0 0 0 0 0 0 0 0 0 0 0
-0 0 0 0 0 0 0 0 0 0 0 0 0 0 -0 -0 -0 0 0 0 0 0 0 -0 0 0 0 0 0 0 0 0 0 0 0 0 0 0 0 0 0 0 0
-0 0 0 0 0 0 0 0 0 0 0 0 0 0 0 -0 -0 0 0 0 0 0 -0 -0 -0 -0 0 0 0 0 0 0 0 0 0 0 0 0 0 0 0 0 0
0 0 0 0 0 0 0 0 0 0 0 0 0 0 0 0 -0 0 0 0 0 0 -0 -0 -0 -0 -0 0 0 0 0 0 0 0 0 0 0 0 0 0 0 0 0
0 0 0 0 0 0 0 0 0 0 0 0 0 0 0 0 -0 -0 0 0 0 0 0 -0 -0 -0 -0 -0 0 0 0 0 0 0 0 0 0 0 0 0 0 0 0
0 0 0 0 0 0 0 0 0 0 0 0 0 0 0 0 0 -0 -0 -0 -0 -0 0 0 0 -0 -0 -0 -0 0 0 0 0 0 0 0 0 0 0 0 0 0 0
0 0 0 0 0 0 0 0 0 0 0 0 0 0 0 0 0 0 -0 -0 -0 -0 0 0 0 0 0 -0 -0 -0 0 0 0 0 0 0 0 0 0 0 0 0 0
0 0 0 0 0 0 0 0 0 0 0 0 0 0 0 0 0 0 0 -0 -0 -0 0 0 0 0 0 0 -0 -0 0 0 0 0 0 0 0 0 0 0 0 0 0
0 0 0 0 0 0 0 0 0 0 0 0 0 0 0 0 0 0 0 0 0 0 0 0 0 0 0 0 0 0 0 0 0 0 0 0 0 0 0 0 0 0 0
0 0 0 0 0 0 0 0 0 0 0 0 0 0 0 0 0 0 0 0 0 0 0 0 0 0 0 0 0 0 0 0 0 0 0 0 0 0 0 0 0 0 0
0 0 0 0 0 0 0 0 0 0 0 0 0 0 0 0 0 0 0 0 0 0 0 0 0 0 0 0 0 0 0 0 0 0 0 0 0 0 0 0 0 0 0
0 0 0 0 0 0 0 0 0 0 0 0 0 0 0 0 0 0 0 0 0 0 0 0 0 0 0 0 0 0 0 0 0 0 -0 0 0 0 0 0 0 0 0
0 0 0 0 0 0 0 0 0 0 0 0 0 0 0 0 0 0 0 0 0 0 0 0 0 0 0 0 0 0 0 0 -0 -0 -0 -0 0 0 0 0 0 0 0
0 0 0 0 0 0 0 0 0 0 0 0 0 0 0 0 0 0 0 0 0 0 0 0 0 0 0 0 0 0 0 0 0 -0 -0 -0 -0 0 0 0 0 0 0
Wind_Speed
2 2 2 3 3 2 3 3 3 4 4 5 4 4 4 4 3 3 3 9 9 9 8 8 8 8 7 7 7 7 7 6 6 6 6 6 6 7 7 7 7 7 6
2 2 3 3 3 3 2 2 3 3 3 3 4 4 4 3 3 4 3 5 8 9 8 8 8 8 8 6 7 6 6 6 5 5 5 4 4 5 5 5 6 5 5
3 3 2 2 2 2 3 2 3 3 3 3 4 4 3 3 3 3 3 3 3 7 8 8 7 8 8 7 6 6 5 6 6 5 4 4 3 3 4 4 4 5 5
3 3 2 2 2 2 2 2 2 3 3 3 3 3 2 2 3 3 3 3 3 3 5 7 7 8 8 8 7 7 6 5 5 5 4 3 3 3 3 3 3 3 4
3 3 2 2 2 2 2 3 3 2 2 3 3 2 2 2 2 3 3 3 3 3 2 5 7 8 8 8 8 7 6 5 5 5 5 3 2 2 2 2 2 3 3
3 3 2 2 2 2 2 3 3 3 2 2 2 3 2 1 1 2 3 2 3 3 3 3 3 5 7 8 8 8 8 6 5 5 4 4 3 2 2 2 2 2 3
3 3 2 2 2 2 2 2 2 3 2 2 2 2 2 2 2 2 2 2 3 3 3 3 3 3 3 7 9 9 9 7 6 6 5 4 5 4 3 3 2 2 3
3 3 3 2 2 2 2 2 2 2 2 3 2 1 1 2 3 3 2 2 3 3 3 4 3 3 3 2 6 10 10 10 7 7 6 5 5 5 5 4 4 4 4
3 3 3 2 2 2 2 2 2 2 1 2 2 1 1 1 2 2 2 3 3 3 2 2 3 4 4 3 3 7 10 11 9 8 7 7 6 6 6 6 5 5 4
3 3 3 3 2 2 2 2 2 2 1 1 2 2 1 0 0 2 2 2 3 3 3 3 3 3 3 3 4 9 10 11 10 9 8 8 8 7 7 7 6 5 5
3 3 3 3 2 2 2 2 2 2 1 1 1 1 2 2 1 1 2 2 3 2 2 2 2 3 2 2 2 6 10 10 10 10 10 9 9 8 9 8 7 7 7
2 3 3 3 2 2 2 2 2 2 1 2 1 1 1 1 1 1 1 2 3 3 3 2 2 2 2 2 4 10 10 11 11 10 10 10 10 10 10 9 9 8 8
2 2 2 2 2 2 2 2 2 1 1 1 1 1 1 1 1 1 1 2 3 3 2 1 1 2 3 2 4 10 9 10 11 11 11 10 10 10 10 10 10 10 9
3 3 3 2 2 2 2 2 2 1 1 1 1 1 1 1 1 1 1 1 2 2 2 2 2 2 3 3 6 10 6 11 11 11 11 11 11 11 10 10 10 10 10
3 4 3 3 2 2 2 2 1 1 1 1 1 1 1 1 1 1 1 1 1 3 3 2 2 2 3 3 6 5 5 11 12 11 11 11 11 11 11 11 11 11 10
3 4 3 3 3 2 2 2 1 1 1 0 0 0 1 1 1 1 1 1 1 2 4 2 3 3 4 5 8 5 6 13 13 12 11 11 11 11 11 11 11 11 11
4 4 3 3 3 2 2 2 1 1 1 0 0 0 1 1 1 1 1 1 2 2 4 4 3 3 4 5 5 5 5 5 6 11 12 11 11 11 11 11 12 12 12
3 3 3 3 3 2 2 2 1 1 1 0 0 0 1 1 1 1 1 2 2 2 3 5 4 4 4 5 5 5 6 5 4 9 12 11 11 11 11 12 12 12 13
3 3 3 3 2 2 2 2 1 1 1 1 1 1 1 1 1 1 2 2 2 3 2 4 5 4 4 4 5 5 5 4 5 7 10 10 11 12 12 12 13 13 13
3 3 3 2 2 2 1 1 1 1 1 1 1 1 1 1 2 2 3 3 3 3 3 3 4 4 4 4 3 4 4 3 4 5 7 8 10 12 13 13 13 13 13
2 2 2 2 1 1 1 1 1 1 1 1 1 1 2 3 4 4 3 3 3 3 3 4 4 4 4 3 4 4 5 4 4 4 3 5 5 5 6 10 11 13 14
2 2 2 1 1 1 1 2 1 1 1 1 2 2 3 4 5 6 7 7 6 4 4 4 4 5 5 5 4 5 4 5 5 2 4 6 5 5 5 4 11 14 15
2 2 1 1 1 1 2 2 2 1 1 2 2 2 3 3 4 3 6 7 7 9 8 5 5 5 5 5 5 6 5 5 6 5 5 6 4 6 5 7 14 15 15
2 2 1 1 1 1 2 3 3 1 2 2 2 3 3 3 4 4 3 4 4 5 6 5 4 5 6 5 5 5 5 5 5 4 4 6 5 5 7 6 12 14 15
1 1 1 1 1 1 3 3 3 1 2 2 3 3 3 3 6 7 4 4 5 5 7 8 9 9 11 11 9 4 4 4 6 5 3 4 5 6 6 5 7 12 13
1 1 0 1 1 1 3 3 3 1 2 2 3 3 5 6 7 8 4 3 4 5 4 5 6 8 7 8 11 5 4 4 5 5 3 3 4 5 5 4 4 4 6
Wind_Direction
62 55 52 42 36 30 28 21 22 23 23 20 24 29 28 32 38 43 41 44 38 36 35 36 40 42 44 46 49 55 56 55 55 53 56 56 57 56 53 51 52 52 48
67 60 55 45 38 28 23 26 31 24 20 20 22 21 24 21 32 39 40 39 37 35 34 34 35 35 35 40 41 43 48 47 48 51 55 50 52 55 52 51 52 48 44
63 58 58 46 37 27 24 33 34 31 27 26 20 13 21 22 27 34 37 34 34 32 29 30 30 31 31 29 31 32 40 38 37 39 45 43 47 45 46 45 48 46 45
67 60 60 50 34 30 28 33 41 37 26 19 9 1 5 13 23 39 40 34 42 32 23 30 29 29 29 25 21 22 26 27 30 29 30 34 31 29 34 34 34 34 37
75 70 65 60 41 40 33 28 37 37 33 19 4 0 355 3 15 49 50 38 45 45 25 26 24 23 24 23 15 10 9 16 18 16 16 10 5 7 11 11 15 22 27
80 76 74 64 52 55 45 39 35 33 33 16 11 6 347 360 29 55 56 43 37 40 31 27 19 13 17 15 10 6 3 0 4 3 358 1 345 327 332 339 346 351 351
83 85 81 73 60 56 56 55 49 42 29 21 25 3 356 19 54 55 49 45 35 37 32 32 31 23 8 13 5 360 356 348 348 351 347 346 349 335 312 306 308 314 321
85 91 88 83 77 74 65 58 56 44 26 19 21 3 4 360 17 23 23 39 34 35 25 23 29 27 20 19 0 357 354 349 345 346 345 339 337 332 320 302 297 299 301
89 87 90 82 76 77 83 61 52 60 44 4 24 45 57 333 321 325 5 36 31 22 6 12 21 26 22 25 5 357 354 347 339 337 339 340 336 334 330 321 295 291 294
100 89 87 87 85 78 79 62 45 37 53 12 2 16 33 56 1 320 319 8 16 12 3 3 8 16 21 21 2 353 352 347 338 334 333 332 333 333 330 325 322 307 298
105 101 96 91 86 81 79 65 52 39 42 37 14 355 0 3 4 282 296 334 348 341 342 354 2 358 8 14 355 347 346 342 337 332 331 331 331 332 330 326 319 316 307
115 106 101 98 96 93 92 86 75 52 38 34 20 23 20 7 342 340 318 321 315 310 323 333 350 347 343 7 353 349 345 342 338 334 332 333 332 331 329 325 319 315 310
130 132 115 113 109 102 98 92 88 76 56 48 34 17 18 356 330 330 326 309 307 302 305 315 335 351 350 9 351 342 339 335 334 332 330 332 334 333 330 326 321 319 314
146 139 129 122 114 109 102 95 91 93 75 60 29 28 15 350 346 341 311 315 310 303 305 303 331 5 0 351 337 338 333 328 325 325 325 326 327 326 324 322 321 321 321
142 137 134 129 122 116 111 108 102 97 88 73 49 25 7 335 339 327 314 284 266 290 292 300 331 341 336 330 328 330 323 322 320 319 318 320 321 320 319 317 316 313 312
136 138 137 132 128 125 120 111 100 93 96 82 90 42 321 308 319 314 304 296 276 259 276 297 308 309 319 321 319 323 315 317 317 311 311 314 315 315 315 314 311 308 308
134 141 143 139 138 138 130 122 124 122 121 102 3 348 291 293 295 294 292 289 286 277 278 293 300 307 309 307 309 304 302 297 301 306 307 309 310 310 309 309 308 307 307
135 137 140 142 147 146 139 142 150 142 155 206 267 276 287 303 301 293 290 285 279 276 275 290 300 302 296 298 297 299 306 306 297 305 305 308 308 307 307 307 307 306 306
138 137 140 146 148 149 149 156 162 164 186 218 236 249 270 284 288 293 290 280 279 286 281 282 291 294 292 293 300 299 298 296 303 308 306 305 306 306 305 306 305 304 305
138 141 145 146 147 153 161 169 171 165 186 231 248 263 273 265 267 273 275 273 275 282 283 281 286 290 290 293 300 302 300 296 299 303 301 301 301 304 302 302 302 303 303
132 135 135 133 144 163 177 168 189 202 215 249 264 268 270 273 279 279 280 276 275 269 272 275 282 291 294 303 304 301 299 301 287 283 297 296 293 284 284 289 294 296 296
133 132 141 147 167 194 207 225 247 246 254 252 266 274 272 272 280 288 293 293 289 277 272 272 280 283 288 291 298 296 296 303 295 288 297 294 290 285 281 270 286 293 294
146 150 156 154 179 210 228 243 262 280 264 261 263 273 280 283 290 286 291 295 296 294 287 275 269 274 283 287 290 289 281 283 284 288 291 286 278 284 285 285 290 291 293
160 170 169 178 193 229 249 259 270 273 261 263 263 263 269 279 278 283 286 291 288 289 289 285 266 272 279 279 272 278 283 290 289 285 286 283 284 282 289 283 283 286 290
151 161 163 181 193 252 267 264 269 269 268 270 269 267 269 266 276 281 283 283 290 292 293 291 291 294 297 296 294 296 292 291 293 292 280 275 293 301 288 280 279 287 296
154 160 202 202 205 233 269 273 274 264 274 282 283 280 279 277 283 286 275 267 280 287 293 299 300 301 299 299 299 289 276 278 288 291 280 289 297 316 303 287 287 296 296